| time (UTC) | temp F | wind direction | speed knots | gust knots | rain 1hr in | rain 24hr in | rain mn in | humidity % | barometer mb |
| 20260505183045 | 67 | 227 | 13.0 | 23.5 | 0.00 | 0.00 | 0.00 | 64 | 1004.0 |
| 20260505181546 | 66 | 251 | 21.7 | 29.5 | 0.00 | 0.00 | 0.00 | 64 | 1004.2 |
| 20260505180052 | 66 | 244 | 17.4 | 28.7 | 0.00 | 0.00 | 0.00 | 63 | 1003.8 |
| 20260505174606 | 67 | 248 | 18.2 | 26.9 | 0.00 | 0.00 | 0.00 | 65 | 1004.2 |
| 20260505173046 | 66 | 271 | 14.8 | 23.5 | 0.00 | 0.00 | 0.00 | 67 | 1003.7 |
| 20260505171546 | 64 | 253 | 11.3 | 26.1 | 0.00 | 0.00 | 0.00 | 69 | 1003.6 |
| 20260505170108 | 60 | 265 | 13.9 | 23.5 | 0.00 | 0.00 | 0.00 | 75 | 1003.7 |
| 20260505164549 | 57 | 294 | 11.3 | 17.4 | 0.00 | 0.00 | 0.00 | 77 | 1003.9 |
| 20260505163046 | 56 | 280 | 10.4 | 16.5 | 0.00 | 0.00 | 0.00 | 78 | 1003.9 |
| 20260505161553 | 58 | 292 | 13.0 | 16.5 | 0.00 | 0.00 | 0.00 | 73 | 1003.6 |
| 20260505153056 | 71 | 240 | 12.2 | 21.7 | 0.00 | 0.00 | 0.00 | 59 | 1002.6 |
| 20260505151551 | 71 | 254 | 10.4 | 17.4 | 0.00 | 0.00 | 0.00 | 60 | 1002.8 |
| 20260505124546 | 70 | 213 | 10.4 | 20.9 | 0.00 | 0.00 | 0.00 | 61 | 1002.0 |
| 20260505123109 | 69 | 226 | 12.2 | 19.1 | 0.00 | 0.00 | 0.00 | 62 | 1002.0 |
| 20260505121549 | 69 | 234 | 9.6 | 17.4 | 0.00 | 0.00 | 0.00 | 63 | 1002.0 |
| 20260505120048 | 68 | 198 | 11.3 | 20.0 | 0.00 | 0.00 | 0.00 | 63 | 1001.9 |
| 20260505114606 | 67 | 225 | 10.4 | 19.1 | 0.00 | 0.00 | 0.00 | 64 | 1001.9 |
| 20260505113042 | 66 | 227 | 8.7 | 18.2 | 0.00 | 0.00 | 0.00 | 66 | 1001.7 |
| 20260505111602 | 64 | 182 | 9.6 | 16.5 | 0.00 | 0.00 | 0.00 | 69 | 1001.3 |
| 20260505101541 | 62 | 194 | 7.8 | 13.9 | 0.00 | 0.00 | 0.00 | 73 | 1001.0 |
| 20260505100048 | 62 | 215 | 9.6 | 16.5 | 0.00 | 0.00 | 0.00 | 73 | 1001.0 |
| 20260505094547 | 62 | 177 | 10.4 | 16.5 | 0.00 | 0.00 | 0.00 | 74 | 1000.8 |
| 20260505093043 | 62 | 186 | 11.3 | 16.5 | 0.00 | 0.00 | 0.00 | 75 | 1000.9 |
| 20260505091545 | 61 | 171 | 10.4 | 18.2 | 0.00 | 0.00 | 0.00 | 76 | 1001.3 |
| 20260505090052 | 61 | 188 | 7.0 | 13.0 | 0.00 | 0.00 | 0.00 | 77 | 1001.6 |
| 20260505084545 | 62 | 175 | 6.1 | 10.4 | 0.00 | 0.00 | 0.00 | 76 | 1001.6 |
| 20260505083059 | 62 | 176 | 6.1 | 12.2 | 0.00 | 0.00 | 0.00 | 75 | 1001.7 |
| 20260505081551 | 62 | 213 | 6.1 | 12.2 | 0.00 | 0.00 | 0.00 | 76 | 1001.8 |
| 20260505080046 | 62 | 210 | 7.8 | 14.8 | 0.00 | 0.00 | 0.00 | 75 | 1001.9 |
| 20260505074545 | 63 | 239 | 10.4 | 20.0 | 0.00 | 0.00 | 0.00 | 74 | 1002.1 |
| 20260505073043 | 65 | 207 | 8.7 | 20.9 | 0.00 | 0.00 | 0.00 | 68 | 1001.9 |
| 20260505071541 | 66 | 202 | 8.7 | 17.4 | 0.00 | 0.00 | 0.00 | 65 | 1002.1 |
| 20260505070053 | 65 | 220 | 7.8 | 13.9 | 0.00 | 0.00 | 0.00 | 65 | 1002.1 |
| 20260505064557 | 66 | 220 | 8.7 | 14.8 | 0.00 | 0.00 | 0.00 | 64 | 1002.0 |
| 20260505063050 | 66 | 236 | 9.6 | 17.4 | 0.00 | 0.00 | 0.00 | 64 | 1001.9 |
| 20260505061544 | 66 | 191 | 8.7 | 15.6 | 0.00 | 0.00 | 0.00 | 63 | 1002.0 |
| 20260505060049 | 66 | 207 | 9.6 | 15.6 | 0.00 | 0.00 | 0.00 | 63 | 1001.8 |
| 20260505054557 | 66 | 207 | 8.7 | 16.5 | 0.00 | 0.00 | 0.00 | 62 | 1001.9 |
| 20260505053102 | 66 | 194 | 8.7 | 14.8 | 0.00 | 0.00 | 0.00 | 60 | 1001.9 |
| 20260505051541 | 66 | 211 | 8.7 | 15.6 | 0.00 | 0.00 | 0.00 | 59 | 1002.0 |
| 20260505041600 | 65 | 213 | 7.0 | 14.8 | 0.00 | 0.00 | 0.00 | 57 | 1002.5 |
| 20260505040046 | 65 | 227 | 9.6 | 16.5 | 0.00 | 0.00 | 0.00 | 56 | 1002.7 |
| 20260505034547 | 64 | 201 | 9.6 | 21.7 | 0.00 | 0.00 | 0.00 | 52 | 1002.3 |
| 20260505033046 | 64 | 196 | 5.2 | 9.6 | 0.00 | 0.00 | 0.00 | 52 | 1002.2 |
| 20260505031549 | 60 | 204 | 4.3 | 7.8 | 0.00 | 0.00 | 0.00 | 59 | 1002.4 |
| 20260505030046 | 57 | 187 | 3.5 | 6.1 | 0.00 | 0.00 | 0.00 | 65 | 1002.5 |
| 20260505024548 | 56 | 149 | 2.6 | 4.3 | 0.00 | 0.00 | 0.00 | 69 | 1002.3 |
| 20260505023048 | 55 | 149 | 3.5 | 5.2 | 0.00 | 0.00 | 0.00 | 70 | 1002.6 |
| 20260505021547 | 55 | 149 | 2.6 | 5.2 | 0.00 | 0.00 | 0.00 | 71 | 1002.8 |
| 20260505020043 | 55 | 149 | 2.6 | 5.2 | 0.00 | 0.00 | 0.00 | 70 | 1003.0 |
| 20260505014545 | 56 | 149 | 2.6 | 4.3 | 0.00 | 0.00 | 0.00 | 69 | 1003.0 |
| 20260505013041 | 55 | 149 | 1.7 | 4.3 | 0.00 | 0.00 | 0.00 | 68 | 1002.8 |
| 20260505011546 | 55 | 149 | 1.7 | 4.3 | 0.00 | 0.00 | 0.00 | 71 | 1002.7 |
| 20260505010047 | 56 | 149 | 2.6 | 4.3 | 0.00 | 0.00 | 0.00 | 69 | 1002.7 |
| 20260505004545 | 56 | 149 | 2.6 | 5.2 | 0.00 | 0.00 | 0.00 | 65 | 1002.6 |
| 20260505003042 | 57 | 149 | 1.7 | 4.3 | 0.00 | 0.00 | 0.00 | 61 | 1002.7 |
| 20260505001549 | 59 | 65 | 1.7 | 3.5 | 0.00 | 0.00 | 0.00 | 60 | 1002.6 |
| 20260505000054 | 60 | 65 | 1.7 | 3.5 | 0.00 | 0.00 | 0.00 | 53 | 1002.5 |
| 20260504234552 | 61 | 65 | 1.7 | 3.5 | 0.00 | 0.00 | 0.00 | 54 | 1002.5 |
| 20260504233045 | 63 | 65 | 0.9 | 4.3 | 0.00 | 0.00 | 0.00 | 51 | 1002.5 |
| 20260504231555 | 68 | 43 | 1.7 | 6.1 | 0.00 | 0.00 | 0.00 | 43 | 1002.4 |
| 20260504230041 | 73 | 227 | 3.5 | 9.6 | 0.00 | 0.00 | 0.00 | 37 | 1002.4 |
| 20260504224540 | 74 | 234 | 5.2 | 11.3 | 0.00 | 0.00 | 0.00 | 35 | 1002.2 |
| 20260504223046 | 74 | 242 | 7.8 | 13.9 | 0.00 | 0.00 | 0.00 | 36 | 1002.2 |
| 20260504221551 | 74 | 232 | 7.0 | 14.8 | 0.00 | 0.00 | 0.00 | 36 | 1002.3 |
| 20260504220045 | 74 | 241 | 9.6 | 13.9 | 0.00 | 0.00 | 0.00 | 36 | 1002.5 |
| 20260504214548 | 74 | 237 | 10.4 | 18.2 | 0.00 | 0.00 | 0.00 | 38 | 1002.6 |
| 20260504213047 | 73 | 255 | 7.0 | 16.5 | 0.00 | 0.00 | 0.00 | 38 | 1002.7 |
| 20260504211550 | 74 | 215 | 7.8 | 16.5 | 0.00 | 0.00 | 0.00 | 38 | 1002.5 |
| 20260504210105 | 74 | 212 | 8.7 | 15.6 | 0.00 | 0.00 | 0.00 | 39 | 1002.8 |
| 20260504204553 | 73 | 253 | 8.7 | 16.5 | 0.00 | 0.00 | 0.00 | 39 | 1002.8 |
| 20260504203047 | 73 | 264 | 8.7 | 15.6 | 0.00 | 0.00 | 0.00 | 38 | 1002.9 |
| 20260504201550 | 71 | 213 | 8.7 | 16.5 | 0.00 | 0.00 | 0.00 | 44 | 1003.2 |
| 20260504200046 | 72 | 234 | 8.7 | 16.5 | 0.00 | 0.00 | 0.00 | 41 | 1003.3 |
| 20260504194602 | 72 | 237 | 10.4 | 18.2 | 0.00 | 0.00 | 0.00 | 42 | 1003.7 |
| 20260504193046 | 72 | 226 | 7.8 | 16.5 | 0.00 | 0.00 | 0.00 | 44 | 1003.9 |
| 20260504191549 | 70 | 236 | 6.1 | 15.6 | 0.00 | 0.00 | 0.00 | 46 | 1004.0 |
| 20260504190055 | 69 | 266 | 11.3 | 20.9 | 0.00 | 0.00 | 0.00 | 48 | 1004.0 |
| 20260504184555 | 70 | 261 | 13.9 | 21.7 | 0.00 | 0.00 | 0.00 | 48 | 1004.3 |